Retour au catalogue

KUIPER-00136

ActifCommunicationsLEO
NORAD 65962·PAYLOAD·🇺🇸 United States

Lancé Oct 14, 2025 depuis Cape Canaveral Space Force Station

Loading…

Prochains Passages (prochaines 24 heures)

TLE

FraisSource: CelesTrak SupGP

Époque: Sep 14, 2026, 21:46 UTC

1 65962C 25228R   26257.90736111  .00000580  00000+0  75841-4 0  2575
2 65962  51.8994 231.4330 0000865  45.6642 207.5588 14.79943549    19

Suivez KUIPER-00136 en temps réel avec AllMySat

Download on the App Store